Wind_Speed
54 53 52 54 53 51 50 48 48 54 56 49 46 48 51 52 55 59 58 56 57 56 55 56 59 61 62 64 64 63 61 59 57 54 53 53 54 55 56 55 53 52 53 53 52 51 52 49 44 42 43 41 38 35 29 26 26 24 21 24 27 32 38 38 37 37 36 37 33 32 36 37 35 32 33 35 33 33 34 35 36 36 36 35 34 34
52 51 52 55 57 56 51 47 45 45 51 53 51 51 54 55 58 61 60 58 58 59 57 54 54 56 60 61 62 62 60 58 55 51 51 52 52 52 52 52 51 51 52 53 52 51 51 49 45 44 44 42 37 34 32 32 28 20 15 21 24 28 33 36 40 40 38 41 40 35 36 36 35 34 36 37 35 33 33 34 36 36 36 35 34 34
48 49 52 55 58 57 51 46 43 40 42 47 51 54 55 55 58 61 61 58 55 54 53 49 50 56 60 59 60 59 59 59 55 49 48 49 51 52 51 51 50 52 53 53 52 53 53 51 48 48 48 46 41 35 34 34 28 21 17 19 21 25 28 31 39 42 37 39 42 39 36 36 36 35 36 36 35 34 33 33 34 36 37 38 36 36
46 47 50 54 56 53 47 44 44 42 41 45 50 54 53 53 57 61 61 58 53 52 52 50 51 57 60 57 57 57 58 58 56 53 49 46 48 52 53 52 51 53 54 53 54 54 53 52 50 50 51 49 44 38 36 37 33 29 26 24 24 25 27 30 35 40 40 38 41 42 41 39 38 36 36 36 35 35 35 34 34 34 36 36 34 34
48 49 46 48 54 52 46 44 46 46 47 49 54 55 55 55 59 61 61 58 55 54 55 54 53 56 57 55 55 56 56 56 58 58 54 49 47 50 53 53 53 55 55 54 55 55 53 51 50 51 52 49 44 39 39 40 38 34 30 29 29 29 30 32 32 38 44 44 43 45 46 43 40 37 37 38 37 38 37 36 36 35 34 34 33 33
51 51 45 44 49 52 50 49 51 52 52 53 55 56 56 57 59 60 60 59 57 57 57 56 54 53 54 54 54 55 54 54 56 60 61 56 49 50 53 53 53 55 56 56 54 53 51 49 49 50 49 46 45 42 40 41 41 37 30 27 29 31 32 34 34 37 44 50 50 48 47 46 43 41 39 39 39 39 39 38 38 38 37 36 35 36
51 52 49 47 47 49 51 53 55 56 55 55 56 57 57 58 60 60 61 60 59 59 58 55 53 51 51 53 53 54 54 54 55 58 63 63 55 52 52 52 52 54 56 57 52 48 46 45 45 45 44 43 44 44 43 43 42 36 28 24 26 29 30 31 33 37 43 51 56 54 50 47 45 44 43 41 39 39 40 40 41 42 42 41 42 42
50 51 51 51 50 50 52 53 55 55 54 53 54 55 56 57 57 58 58 59 58 57 55 53 53 51 50 51 52 54 55 55 57 58 63 66 61 55 52 49 49 50 53 55 51 45 43 44 43 41 39 38 42 45 46 45 41 33 25 24 25 26 27 28 30 34 41 49 56 59 58 53 50 49 47 44 42 40 41 42 43 45 45 44 44 42
50 51 51 52 53 54 55 56 56 55 52 53 55 55 55 55 55 56 56 56 56 53 51 53 55 52 50 51 53 54 56 58 59 60 63 65 60 55 52 46 45 47 49 51 49 45 43 41 39 37 35 35 39 44 47 47 42 34 28 26 25 25 25 25 27 30 37 45 52 58 61 58 55 55 53 51 49 45 44 43 43 44 44 43 41 40
48 50 50 51 51 53 56 57 56 55 54 55 57 56 55 54 54 54 53 53 52 48 48 53 56 53 50 52 53 55 57 60 61 59 60 59 54 51 50 44 42 45 47 48 47 44 41 36 34 34 33 34 39 43 48 49 44 37 32 28 27 25 22 23 26 28 33 40 48 55 61 62 61 58 55 55 55 52 48 46 44 44 44 44 42 42
47 49 50 50 48 47 50 51 51 52 53 55 56 54 53 52 51 52 51 49 47 46 49 54 54 52 51 53 54 54 55 59 59 56 55 53 47 46 45 40 39 41 44 44 42 40 36 31 31 31 30 32 37 42 48 50 46 39 34 30 27 24 21 21 23 26 31 36 43 51 57 63 65 64 60 58 57 55 53 51 50 48 47 46 45 45
45 47 49 49 46 44 46 46 47 48 49 50 51 50 49 49 49 50 49 47 46 46 51 54 53 52 51 52 53 52 52 55 55 50 49 48 42 38 39 36 34 37 38 37 37 35 30 27 28 27 25 28 32 37 42 47 46 40 36 34 29 25 23 23 24 27 31 34 38 45 53 59 63 66 65 63 60 59 58 57 56 54 52 50 48 48
44 45 48 49 47 45 47 47 47 47 46 47 48 48 48 47 47 48 48 47 46 47 51 53 52 51 49 48 50 50 49 51 50 43 42 43 36 31 31 30 30 32 32 30 28 27 23 20 20 19 19 22 27 31 35 40 42 40 37 38 33 27 26 25 24 27 29 31 33 36 44 53 59 62 64 64 63 63 63 62 62 60 59 58 56 55
44 44 45 47 45 46 49 49 47 47 46 47 48 48 48 47 46 46 46 46 45 47 50 51 50 48 47 46 47 47 46 46 44 38 35 36 31 25 25 26 27 28 28 25 21 17 15 13 12 14 13 13 20 26 31 36 38 40 41 41 35 28 25 22 22 24 23 23 24 27 32 40 50 57 60 62 62 62 63 63 63 60 60 60 59 57
42 41 41 42 42 45 49 48 47 47 46 46 47 47 46 45 45 45 45 45 46 47 48 48 47 46 46 46 45 44 44 41 38 32 29 29 23 19 23 25 25 25 25 24 23 22 21 19 17 18 16 15 20 25 28 33 36 39 41 38 32 28 26 24 22 20 20 21 24 29 31 32 41 50 55 59 61 61 60 60 59 57 57 58 58 58
41 40 40 40 41 43 45 44 44 44 44 44 44 44 44 44 44 45 45 45 45 44 45 45 45 44 45 45 43 43 42 38 36 31 25 24 20 19 24 25 24 25 23 23 29 32 31 30 26 23 21 22 26 28 27 27 30 34 35 32 30 30 31 31 28 25 27 29 30 31 30 29 35 43 47 51 56 58 59 59 59 58 58 59 61 61
42 41 41 41 40 40 42 43 42 42 42 42 41 42 44 44 44 45 45 43 43 42 43 45 44 43 44 44 42 42 38 34 33 29 23 22 21 22 27 26 23 25 24 24 31 33 33 34 34 30 26 23 24 27 25 20 22 26 27 27 28 30 34 37 36 34 35 34 33 32 30 30 35 41 44 48 52 55 57 59 59 59 59 61 63 64
44 43 42 42 42 41 42 44 42 41 43 42 41 42 44 45 44 44 44 43 42 41 42 44 43 42 42 41 41 40 35 31 29 25 21 22 23 24 28 29 27 28 27 26 30 31 31 33 35 36 34 31 29 27 21 17 18 21 23 25 21 18 29 38 36 35 38 39 38 35 34 36 38 40 41 45 50 55 57 59 59 59 58 58 60 63
46 45 44 44 44 43 44 45 43 43 44 43 42 43 43 44 44 44 44 43 43 42 41 43 43 42 40 39 40 37 31 28 25 20 19 21 25 26 28 31 30 30 29 28 31 32 31 33 37 40 38 36 34 29 25 24 19 15 21 26 25 25 33 41 35 31 34 38 40 39 38 38 36 33 31 31 40 51 55 57 59 60 60 57 55 58
48 46 46 46 47 46 45 44 44 43 43 42 42 42 42 44 44 45 45 44 44 43 43 44 44 42 40 39 39 34 27 26 23 19 17 20 26 29 30 32 32 30 30 31 34 35 34 36 40 43 42 39 37 35 33 31 25 19 26 33 34 39 45 43 37 33 33 35 39 41 41 40 36 32 29 28 33 43 50 54 57 59 60 58 56 56
49 48 48 49 49 47 44 43 44 43 43 42 42 43 44 45 45 46 46 45 46 46 46 45 44 43 42 40 36 30 25 24 22 21 19 20 25 29 31 33 32 30 30 33 36 38 39 40 42 45 45 43 41 40 38 35 34 33 35 42 44 43 45 43 39 38 36 35 38 39 41 42 38 34 33 34 35 37 42 48 52 54 55 55 55 56
49 48 50 51 50 47 43 44 45 44 44 44 44 45 46 47 47 47 47 47 48 49 48 46 45 44 43 39 32 26 25 24 23 22 21 22 25 28 31 33 31 29 31 34 38 40 42 43 44 46 49 47 42 42 43 42 39 36 39 51 54 49 46 45 43 41 39 39 39 38 38 41 40 35 35 37 37 37 38 42 46 49 51 52 53 54
50 48 51 52 51 48 46 47 47 47 48 47 46 46 47 48 49 48 48 48 49 50 48 47 45 44 43 37 28 24 26 26 24 23 24 26 28 28 29 31 31 30 32 36 40 43 44 46 46 49 52 50 44 44 49 51 47 41 44 57 60 53 49 47 46 45 42 42 43 40 37 39 42 40 37 36 37 38 39 40 43 46 48 50 51 52
52 51 53 54 53 51 49 50 50 50 50 49 48 49 49 50 50 50 50 50 50 49 48 47 46 44 43 36 28 27 28 28 26 25 26 28 31 31 29 30 31 31 34 39 43 45 45 46 48 52 54 51 47 47 51 52 50 47 51 56 54 50 48 47 47 48 46 44 45 44 41 40 42 42 39 37 38 40 41 42 44 46 47 48 48 48
56 56 56 56 56 54 53 55 55 53 53 52 52 53 52 53 53 52 51 50 49 48 47 47 46 43 40 34 30 30 31 31 29 28 27 29 33 34 31 30 31 30 34 40 45 47 47 47 49 53 54 50 49 50 50 49 48 47 47 45 41 40 42 43 45 46 47 46 46 46 45 43 43 43 41 40 40 42 43 43 44 44 44 44 45 45
60 60 58 59 60 58 58 59 56 54 55 56 56 55 53 53 53 51 49 48 47 46 46 47 46 41 36 32 31 33 34 35 33 31 30 30 34 36 34 32 32 30 32 38 43 47 49 50 51 53 53 50 51 52 51 50 49 48 46 41 35 32 33 37 41 43 46 47 46 46 46 46 45 45 45 45 44 43 43 42 42 41 40 40 42 42
62 61 60 61 61 60 60 59 57 56 58 57 56 54 52 52 52 50 49 48 47 46 47 47 44 39 33 32 33 33 35 37 36 34 32 32 34 37 36 35 35 33 31 36 41 45 49 52 54 54 54 53 53 54 54 54 53 51 50 45 38 34 34 36 39 41 43 45 44 44 43 43 44 45 47 48 46 44 43 41 40 39 39 39 39 40
61 60 60 60 61 60 59 59 58 58 59 57 55 54 52 52 52 51 50 49 47 48 47 44 41 37 32 32 34 34 35 37 38 38 36 35 36 38 38 38 38 37 35 36 39 42 46 51 54 57 58 57 56 57 57 58 56 54 54 51 45 41 42 41 39 39 41 41 40 39 39 39 40 42 45 46 45 44 43 41 40 39 39 39 40 41
62 60 58 58 58 58 57 58 58 58 58 56 54 54 54 53 53 51 49 48 47 47 44 40 38 35 32 33 34 33 33 35 37 38 38 37 37 39 40 41 41 41 39 38 38 40 42 46 51 57 60 60 59 58 59 59 58 56 56 56 52 48 49 49 45 41 40 38 37 35 34 36 38 41 44 46 46 45 43 43 43 42 42 43 43 44
66 63 62 61 60 59 58 58 58 58 57 55 54 55 55 54 52 50 48 47 46 45 42 38 35 34 34 36 35 32 32 33 34 35 36 38 39 40 41 41 42 44 43 42 40 40 41 43 47 54 59 61 60 59 59 59 60 59 58 59 59 55 54 55 53 48 42 38 37 35 33 35 38 40 44 48 49 48 46 46 46 46 45 45 45 46
69 68 67 67 66 65 63 63 61 60 58 57 56 56 56 53 51 49 47 46 46 44 40 35 33 33 35 38 37 33 31 31 31 32 33 34 37 40 43 43 42 44 45 44 42 42 43 44 46 50 56 59 60 60 59 60 61 62 60 60 61 60 57 56 55 51 44 40 37 33 32 36 39 40 43 48 51 51 50 48 48 48 48 48 47 47
70 70 71 71 70 69 67 66 65 63 61 59 57 57 56 54 52 50 47 46 46 44 37 31 32 34 34 37 39 36 32 30 30 30 31 32 34 38 43 45 44 44 45 45 44 43 44 45 47 49 53 57 59 60 60 61 62 63 62 61 61 61 60 58 55 52 48 44 42 36 32 36 41 40 40 44 48 51 52 52 51 50 51 50 49 49
66 67 70 71 71 70 69 68 67 65 63 60 58 57 56 54 52 51 48 47 46 43 38 34 34 35 35 37 40 39 36 33 32 31 30 30 33 36 41 46 47 46 45 45 44 43 44 45 47 49 52 55 58 59 59 61 63 64 63 63 63 62 61 61 59 55 51 49 50 47 40 37 37 37 37 40 44 47 51 53 54 54 54 53 53 52
60 61 64 66 67 68 67 67 67 65 61 59 57 57 55 54 53 51 50 47 45 43 41 37 36 36 36 36 39 42 40 36 35 32 29 29 31 34 36 40 45 48 48 46 44 43 43 44 46 49 51 54 56 58 59 61 62 63 64 64 64 64 63 63 63 60 55 52 53 53 47 40 37 37 37 38 41 43 47 51 53 55 56 56 55 55
55 57 58 59 61 61 61 61 61 58 54 53 54 55 54 55 55 52 50 47 45 44 44 40 38 39 38 35 37 41 42 40 37 34 31 31 32 34 34 35 39 43 47 48 47 46 45 45 46 48 51 54 56 58 59 61 62 62 63 64 65 65 65 64 64 63 60 56 55 56 52 45 42 42 41 40 40 41 43 46 48 51 54 56 56 56
55 57 57 58 58 58 58 58 57 53 50 49 51 53 53 54 54 51 49 48 46 46 46 43 40 42 42 37 35 38 41 40 37 34 33 33 34 36 36 36 37 38 42 46 48 49 48 47 48 49 52 55 57 58 59 61 62 63 63 63 65 66 66 65 64 64 63 60 58 59 57 52 48 47 45 42 40 40 40 41 44 46 49 53 56 58
56 58 58 59 59 59 59 58 57 54 51 50 51 52 52 53 53 52 51 51 49 48 47 43 41 44 46 42 37 38 40 39 38 36 36 36 36 37 37 38 38 38 39 41 44 47 49 49 50 51 54 56 58 60 60 61 62 63 63 64 65 67 67 66 64 63 63 61 60 61 62 60 55 52 51 49 46 44 43 43 44 44 46 51 55 58
57 58 58 59 60 60 59 59 58 56 54 53 54 55 55 55 55 54 53 53 51 49 48 45 43 46 50 48 43 42 41 42 42 42 42 41 40 40 40 39 39 39 40 40 40 41 44 47 50 52 54 57 59 61 62 62 62 63 64 64 65 66 68 68 66 64 62 60 59 60 63 65 62 58 56 55 54 52 50 48 48 48 49 50 52 54
62 60 60 62 62 62 61 61 60 58 56 57 58 58 58 58 58 57 55 54 52 50 50 49 47 47 52 53 50 47 45 45 46 47 47 47 46 45 44 43 42 41 41 42 42 41 41 44 47 50 53 57 59 61 63 64 64 64 64 65 66 67 68 69 69 67 64 61 60 60 61 64 66 64 60 58 58 57 56 54 54 53 52 52 52 52
66 66 68 69 67 65 65 64 62 61 60 61 61 60 60 60 59 58 56 55 54 53 52 52 51 50 53 55 55 53 51 49 50 51 51 50 50 49 47 46 46 45 43 43 43 43 43 44 45 48 52 55 58 61 63 65 66 66 66 67 68 68 68 70 71 71 68 64 61 61 62 63 65 66 65 63 61 61 60 59 58 57 57 56 56 56
64 68 71 73 72 70 69 67 65 64 63 63 62 62 62 61 60 59 58 56 56 55 54 54 53 52 54 57 57 57 56 54 54 54 54 52 51 50 49 47 47 48 48 46 45 45 45 44 44 47 50 54 57 60 62 65 66 67 67 68 69 70 70 70 72 72 71 68 64 64 65 65 65 66 67 67 66 66 64 63 62 61 60 60 61 60
63 65 68 70 70 70 70 70 68 67 66 65 64 63 63 63 61 61 60 59 57 56 56 55 54 52 53 57 59 60 60 59 58 58 57 55 53 52 51 49 49 50 51 51 49 48 47 46 45 46 49 52 55 58 61 64 67 69 69 69 70 71 71 72 72 73 73 71 68 66 67 68 69 69 69 69 69 69 69 69 68 66 65 64 64 64
63 64 66 67 66 66 68 69 68 68 67 66 65 65 65 64 64 63 62 60 58 58 58 56 55 54 54 55 58 61 62 60 59 58 58 57 56 54 52 51 51 52 54 54 54 52 50 48 47 47 48 50 52 55 58 62 66 69 71 72 72 72 73 73 73 73 73 73 72 69 68 69 71 72 73 72 71 70 70 71 72 71 71 70 68 68
61 63 65 66 65 63 64 65 66 66 66 65 65 66 66 66 65 65 64 62 61 60 59 58 56 55 55 55 56 60 62 60 57 55 56 56 55 54 52 51 51 53 54 55 57 57 54 51 50 49 49 49 50 52 55 59 64 68 71 74 74 75 75 75 74 74 73 73 73 72 71 70 70 72 75 76 76 73 71 70 71 72 73 73 72 71
57 59 60 62 62 60 58 58 60 62 64 65 67 68 68 68 68 67 66 64 63 61 60 59 58 56 56 55 55 58 61 62 60 57 56 55 55 54 52 51 51 51 51 54 57 57 55 53 52 52 51 51 51 52 54 56 60 64 68 72 74 76 77 77 76 75 75 75 74 73 73 73 72 72 74 76 78 78 76 74 72 71 72 72 72 72
53 54 55 56 57 54 50 51 54 57 60 63 66 67 67 68 68 67 65 64 63 62 60 59 58 57 56 54 53 54 58 61 61 61 60 59 58 57 55 53 51 50 50 51 54 54 53 53 53 54 54 54 54 53 53 54 57 60 64 68 71 74 76 78 78 77 77 77 76 76 75 75 75 74 74 76 78 80 81 79 77 75 74 73 73 73
51 52 53 53 53 51 47 46 48 51 53 56 60 62 64 65 64 63 62 62 61 60 58 56 56 56 54 52 50 51 53 56 59 61 62 62 59 57 55 53 52 50 49 49 51 52 52 52 52 52 53 55 56 55 54 54 56 57 60 65 68 71 74 76 77 78 79 79 79 78 78 77 77 77 76 77 78 80 82 83 82 81 79 78 77 76
48 50 51 52 52 50 47 46 47 49 50 51 54 57 58 60 59 57 56 56 56 55 53 51 51 52 52 50 48 48 49 50 52 56 58 58 56 54 53 52 51 51 49 49 49 50 51 51 51 51 51 53 56 57 56 56 56 57 57 60 65 69 72 74 75 77 79 80 80 80 80 80 80 79 79 78 79 80 82 84 85 85 84 83 82 81
44 45 47 48 48 47 46 45 47 49 50 51 52 54 55 55 55 53 50 49 49 48 47 45 47 50 52 51 49 47 47 47 48 51 53 54 54 53 51 51 50 50 50 50 50 50 50 51 51 52 52 53 55 57 57 57 58 58 57 58 61 65 69 72 74 76 78 79 80 81 81 81 82 81 81 81 81 81 82 83 85 87 88 88 88 87
39 41 42 43 43 43 43 44 47 49 51 52 53 54 54 54 53 51 49 46 44 43 43 42 43 46 49 51 50 49 48 47 48 50 52 53 53 52 51 50 50 50 50 51 51 51 51 51 52 52 52 54 55 56 57 58 59 59 59 59 60 61 64 68 72 75 77 79 80 81 82 82 82 82 82 82 82 82 83 83 84 85 87 88 89 90
35 36 37 39 40 40 42 45 47 49 51 53 53 54 54 54 53 51 49 45 43 42 41 42 42 43 46 49 50 50 50 49 49 50 51 52 52 52 52 52 52 52 52 52 52 52 53 53 53 53 53 54 55 56 56 58 59 60 61 62 62 61 62 64 68 71 74 77 79 81 82 83 83 83 83 83 83 83 84 84 85 85 86 87 88 89
Wind_Direction
255 254 251 248 248 249 249 253 251 242 239 242 245 245 246 246 245 245 243 242 244 247 250 258 264 267 268 269 269 270 270 269 268 267 264 263 263 265 267 267 267 265 264 265 264 264 263 263 260 256 255 252 257 268 261 246 245 247 260 265 259 253 249 243 235 226 212 204 207 216 227 232 230 232 235 233 234 238 240 239 239 237 237 242 247 250
256 254 250 245 244 246 247 251 254 249 242 241 243 245 245 245 247 248 247 245 248 251 254 258 262 265 267 270 271 271 271 269 267 267 266 265 263 262 263 265 265 265 264 264 264 263 262 262 257 251 250 249 259 266 251 241 240 235 257 269 263 262 256 242 231 225 216 207 208 213 221 225 227 231 234 234 233 234 237 238 238 237 239 245 250 257
253 251 248 244 242 244 246 249 252 253 248 244 245 247 248 249 252 254 253 253 254 257 259 259 261 265 267 269 270 271 270 270 268 265 264 266 267 265 264 263 264 264 264 264 263 263 261 261 258 253 250 249 257 260 244 238 236 225 234 250 255 259 257 247 233 227 221 213 211 212 216 221 227 232 233 236 239 237 238 240 241 243 249 254 257 259
251 249 245 241 240 243 246 249 252 253 252 250 249 249 250 251 252 254 256 257 257 258 260 260 262 266 268 268 269 270 271 272 270 266 261 261 264 267 266 265 265 264 264 264 264 263 262 262 260 256 253 250 252 250 239 237 234 223 222 228 237 244 250 252 241 231 226 220 216 215 215 219 226 232 233 235 239 239 239 242 245 247 251 254 252 251
249 248 248 243 240 240 242 246 250 252 251 250 249 249 249 249 249 252 255 257 257 259 261 263 264 265 267 268 268 270 272 274 274 272 266 260 259 263 266 266 266 266 266 265 265 265 264 264 261 258 255 250 245 239 236 239 237 229 227 227 231 236 245 253 250 239 231 224 223 221 218 219 223 227 231 232 235 237 239 242 244 245 246 246 245 247
245 245 248 247 243 240 240 243 248 250 249 248 249 249 249 250 251 254 258 260 261 263 265 265 265 264 265 267 267 268 270 272 274 276 274 268 262 262 265 266 268 269 269 267 265 265 266 265 263 259 255 248 239 232 232 239 239 235 234 236 240 245 248 251 252 247 238 230 227 226 220 218 220 222 226 231 235 236 237 238 240 241 244 246 249 254
243 241 242 244 243 241 241 243 246 247 247 248 250 251 251 253 255 258 261 263 265 266 267 267 267 266 266 267 268 269 270 271 272 274 275 274 270 265 265 267 269 270 271 270 267 266 266 265 262 259 255 245 235 228 228 233 236 233 237 248 254 256 256 257 255 251 246 237 232 229 221 217 221 221 221 228 234 237 237 237 239 242 246 251 255 257
244 240 238 240 241 242 243 243 245 246 248 250 253 254 255 257 259 261 264 265 266 267 269 269 267 266 266 268 269 270 272 272 272 272 274 274 274 272 270 270 270 269 269 269 268 265 262 261 259 257 253 243 232 226 224 228 229 227 241 259 260 260 264 267 264 258 253 246 240 235 229 226 226 224 221 224 229 236 240 241 243 247 249 251 252 253
244 241 239 239 240 242 245 246 248 251 254 255 257 258 260 262 264 264 265 266 267 268 271 271 269 267 267 269 270 272 273 273 273 272 273 274 277 277 274 270 266 263 262 262 263 261 257 256 257 256 251 242 233 226 221 223 223 224 241 256 255 260 269 272 272 268 261 254 249 242 235 232 231 228 227 226 226 231 236 237 239 242 245 246 247 251
246 242 240 241 241 243 245 247 249 252 255 256 257 259 261 263 264 264 264 266 268 270 271 269 270 271 272 273 274 276 278 277 276 275 275 275 276 275 272 268 261 257 256 256 257 255 254 254 255 255 248 239 234 226 220 219 220 226 238 245 251 259 271 278 277 274 268 261 255 249 242 237 235 232 230 228 227 228 230 231 232 235 238 241 246 252
246 243 241 242 243 246 247 247 249 249 251 254 256 258 259 260 262 263 264 266 268 270 269 268 271 274 276 278 279 279 281 280 280 280 279 277 274 270 268 265 258 253 253 254 254 253 253 253 253 252 245 238 233 227 223 221 219 225 230 234 248 256 264 280 284 281 276 268 262 257 250 244 242 239 236 232 230 230 231 232 234 237 239 240 244 250
246 244 244 243 243 248 249 248 248 249 250 253 256 257 257 258 260 262 264 265 266 267 267 269 273 276 279 281 282 282 282 282 282 282 280 276 273 268 265 261 253 248 248 249 251 251 252 254 254 253 246 242 237 232 231 226 219 220 224 229 243 254 256 270 286 291 288 279 269 264 259 254 249 247 245 241 236 234 235 236 240 242 243 243 245 250
244 242 243 243 242 246 249 249 249 250 252 254 256 257 257 258 260 263 264 265 264 265 267 272 275 278 280 282 284 285 285 285 285 283 278 273 268 263 258 250 242 240 239 239 243 250 255 257 260 260 256 253 249 245 242 233 219 214 223 233 242 253 258 266 286 296 292 283 275 269 266 262 257 254 252 250 246 243 242 242 244 247 249 250 251 254
244 242 243 244 244 246 248 249 250 252 253 254 256 257 258 259 260 260 262 264 266 267 271 275 278 280 282 283 285 287 288 288 287 282 275 269 264 255 242 232 228 229 228 225 222 226 232 235 239 245 253 262 264 263 259 248 229 217 227 239 245 254 260 268 288 294 285 277 270 263 261 262 261 258 256 255 253 251 250 249 250 252 254 256 257 257
246 245 245 245 244 245 247 249 250 252 252 254 255 257 258 259 259 260 262 265 268 271 274 277 279 282 284 286 287 288 289 288 283 279 272 266 257 238 222 218 217 218 220 212 195 185 192 201 207 212 211 218 238 254 260 256 243 231 234 242 247 256 260 262 274 273 257 251 248 248 250 251 256 258 256 256 256 255 255 254 254 255 254 255 256 255
244 243 243 242 242 243 247 248 248 249 251 252 254 256 259 260 262 263 264 267 269 273 275 277 280 284 286 288 289 290 289 284 277 274 269 256 241 217 208 210 207 204 203 190 177 178 187 192 192 191 195 203 216 231 242 247 242 235 235 238 246 259 262 259 258 245 231 229 231 238 242 241 248 254 254 254 253 253 254 255 255 254 253 253 253 254
241 240 241 241 240 242 245 247 247 248 250 251 254 259 262 263 264 266 267 269 270 272 275 278 281 284 288 291 292 292 290 280 270 266 258 241 227 209 203 206 202 196 191 179 178 185 191 190 188 187 191 195 205 219 227 232 233 229 228 233 247 264 265 257 251 239 229 229 231 233 232 231 240 248 252 253 253 252 252 252 252 253 254 254 253 253
240 241 241 242 243 242 245 249 250 251 253 255 256 259 262 264 265 266 269 270 271 273 275 279 283 286 291 294 293 293 288 276 264 258 248 230 216 204 200 203 200 196 195 191 191 197 197 193 191 190 190 190 194 202 205 212 226 229 227 227 233 257 265 258 249 239 235 237 239 237 232 233 240 249 255 256 255 253 251 251 250 251 254 256 256 254
240 242 243 245 246 245 247 251 253 254 256 257 257 257 260 263 266 268 270 271 273 275 278 283 286 289 293 294 294 293 284 270 258 248 240 225 212 203 200 203 205 204 204 200 197 201 201 195 191 189 190 191 190 189 191 195 202 227 240 230 212 212 236 246 243 235 235 237 237 236 235 236 240 247 249 246 248 250 250 251 251 251 254 257 260 259
241 242 244 245 247 247 248 252 254 255 256 256 257 259 261 263 267 270 272 274 277 279 282 286 289 291 294 294 294 290 275 259 247 233 229 222 213 208 204 206 210 212 212 204 198 199 201 197 191 189 191 193 192 189 190 188 184 206 239 239 226 217 224 234 235 228 229 233 237 238 238 238 240 240 234 226 236 246 248 249 251 252 254 257 260 262
241 242 244 245 246 248 249 251 252 252 254 256 259 261 263 265 267 269 272 275 278 280 283 287 291 294 294 295 293 282 261 245 233 223 224 217 209 208 206 207 209 212 212 205 198 198 199 197 192 190 190 192 194 193 188 184 182 191 213 229 231 226 224 230 232 229 228 232 239 243 242 240 238 238 236 231 233 243 248 249 249 251 254 256 258 259
245 244 245 246 248 249 248 248 249 250 253 256 259 262 263 264 265 266 270 272 275 279 283 288 292 293 294 295 289 268 245 233 223 217 217 211 206 206 205 204 204 204 205 202 197 196 197 196 193 190 189 189 194 195 185 184 192 196 204 219 226 227 224 226 229 231 232 233 238 245 246 240 234 234 240 242 239 243 249 252 252 253 254 255 257 258
247 246 246 247 247 248 247 247 248 250 253 255 258 261 262 263 263 265 267 270 274 280 284 288 291 291 293 294 280 249 232 227 220 213 210 207 205 207 205 202 198 197 199 199 195 193 194 196 194 190 189 189 194 197 189 189 202 208 208 214 222 224 224 226 228 230 234 235 235 241 245 240 235 235 241 247 247 247 250 254 257 258 258 257 258 258
245 244 245 247 247 248 248 248 249 251 254 256 258 260 261 262 263 265 268 272 277 281 285 287 289 290 293 289 268 240 228 224 217 210 208 206 206 208 206 202 199 195 196 196 193 192 193 195 195 192 192 192 195 198 196 195 201 206 209 214 218 220 221 225 228 231 235 235 233 236 241 241 237 237 241 246 251 252 253 255 258 260 260 260 259 258
245 244 244 246 248 248 248 250 251 253 256 258 259 260 262 265 266 269 272 275 278 281 285 286 288 290 290 279 256 237 227 223 219 213 211 208 206 208 208 205 204 199 196 196 194 194 195 196 196 196 196 197 198 200 201 202 203 205 208 211 213 214 218 223 227 230 234 234 233 235 240 242 240 240 242 244 249 254 256 256 256 258 259 259 259 258
244 245 245 247 248 249 250 252 254 256 258 259 260 262 264 266 269 271 273 275 277 280 283 284 287 290 283 263 244 234 226 224 225 220 217 214 209 210 210 207 208 205 199 198 197 196 197 199 199 200 201 201 201 202 204 206 208 207 204 205 207 206 211 219 224 227 230 231 232 234 238 241 242 243 246 247 249 252 252 253 254 255 256 256 257 256
243 245 246 247 249 250 252 254 255 256 257 258 259 261 263 265 267 269 271 273 276 278 281 283 286 288 277 253 239 232 226 225 227 224 221 219 214 212 212 210 210 211 205 201 199 196 198 201 201 202 204 204 204 205 207 210 212 210 205 205 206 199 200 214 221 222 224 226 229 232 237 241 243 244 246 248 249 246 245 248 251 252 253 254 254 254
244 244 245 247 249 250 251 252 252 253 254 255 257 259 261 263 265 268 271 274 275 277 280 283 286 286 273 250 239 234 227 225 227 227 226 224 218 214 214 213 213 214 210 205 204 200 199 203 204 203 203 205 207 208 210 212 214 213 209 208 208 202 201 210 217 219 220 222 225 231 235 240 243 243 244 246 245 242 242 244 245 246 249 251 253 254
244 244 245 246 247 248 248 249 249 250 252 254 257 259 260 262 265 269 271 272 273 275 277 282 284 279 263 247 240 236 231 228 227 228 228 226 220 215 215 215 216 217 214 209 208 207 204 205 207 205 204 206 208 210 212 214 215 216 215 214 214 210 208 212 217 220 219 219 224 231 237 243 245 243 244 244 242 241 241 242 242 244 245 247 249 252
244 245 245 245 245 246 246 247 248 249 252 254 257 259 260 263 266 268 268 268 268 270 275 278 277 268 256 248 242 235 231 231 231 230 229 227 222 217 216 218 218 219 217 215 214 214 214 213 211 209 208 209 210 211 213 215 216 217 218 218 219 218 217 218 221 223 223 223 228 233 241 246 246 245 245 245 244 243 242 243 244 246 247 247 247 250
244 245 246 246 246 246 247 248 249 250 252 254 256 258 260 262 263 263 263 263 264 267 273 274 267 259 254 249 245 239 232 232 236 237 234 231 225 219 218 220 221 222 220 220 219 219 219 220 218 215 213 212 212 213 213 215 216 218 220 220 221 221 220 220 222 224 224 225 228 233 242 246 244 245 248 247 246 246 246 246 247 248 249 250 250 251
244 244 245 246 247 247 248 250 251 252 253 255 256 258 259 260 259 259 258 259 262 265 268 267 260 255 251 247 244 241 234 232 237 240 238 235 229 223 220 220 222 225 225 224 224 223 222 221 221 220 218 215 214 215 215 216 217 219 222 222 221 222 222 221 222 223 222 220 219 220 230 240 241 243 248 250 248 248 248 249 250 250 250 250 251 252
244 244 245 246 247 248 249 250 251 252 253 255 256 256 257 257 256 256 255 257 260 262 262 262 258 252 249 246 243 240 237 235 237 238 237 235 233 228 223 220 222 226 228 228 228 227 225 223 221 221 220 218 217 217 218 218 218 221 223 223 222 223 223 222 222 224 223 220 219 219 223 231 234 235 240 245 247 248 248 249 250 251 251 251 251 252
241 242 243 245 246 247 248 249 251 251 252 253 253 253 253 252 251 252 254 256 258 259 261 262 256 248 245 245 242 239 239 239 238 238 238 237 236 233 227 222 221 223 226 228 229 229 227 224 223 223 222 221 220 220 220 220 220 221 223 223 222 223 224 223 223 224 225 223 223 224 225 227 228 227 230 237 242 246 249 249 250 251 253 253 253 253
239 241 242 243 245 246 247 248 249 249 249 249 249 249 249 248 250 252 254 255 255 256 260 264 259 249 242 241 241 239 239 239 240 240 241 242 243 241 236 231 227 224 224 226 228 228 227 225 225 225 226 224 222 222 223 223 222 222 223 223 223 223 224 224 224 225 227 226 226 226 224 223 225 226 229 234 239 243 248 251 251 251 253 254 254 254
238 239 241 242 244 245 245 246 247 247 246 244 244 246 246 247 250 252 253 253 254 254 258 263 264 254 242 237 238 238 238 239 241 243 246 247 247 247 245 241 236 231 228 227 227 227 227 226 227 227 228 228 226 224 224 226 225 224 224 224 224 224 224 225 225 226 229 229 229 228 225 224 226 229 230 232 234 235 240 246 249 250 253 254 254 254
236 238 239 240 242 243 244 245 246 246 244 242 242 243 244 245 248 251 252 253 254 254 255 259 263 255 244 238 237 237 239 241 244 246 249 251 251 251 248 245 242 238 234 230 229 228 227 227 227 228 229 229 228 226 225 226 227 228 227 227 226 225 226 226 226 228 230 230 231 230 227 227 229 231 231 232 233 233 234 240 245 248 251 253 254 255
233 235 237 239 240 241 242 243 244 244 243 242 242 242 244 246 248 251 252 253 254 254 254 257 259 253 246 242 239 239 240 242 244 247 248 249 251 253 251 248 246 243 238 234 232 231 230 228 227 228 229 230 230 228 226 225 226 228 229 230 229 228 227 228 228 229 230 230 230 231 229 229 231 232 233 234 235 236 237 240 243 246 248 252 255 256
231 233 235 236 237 239 239 240 241 242 242 242 243 244 245 247 249 250 251 252 253 253 254 256 257 251 246 244 243 241 240 241 243 246 248 248 249 251 251 250 249 247 244 239 237 236 235 232 229 228 229 231 231 230 228 226 226 227 228 230 231 230 229 228 229 231 232 232 231 231 231 231 232 233 234 236 237 238 239 241 243 246 248 250 253 255
232 232 234 236 236 237 239 240 240 241 242 243 245 246 246 247 248 249 249 249 250 251 252 254 255 251 244 243 243 243 242 242 244 246 248 249 250 251 251 250 249 249 248 245 242 241 240 236 232 231 231 231 231 231 231 229 228 228 228 228 230 231 231 230 230 232 235 235 234 232 232 232 233 234 235 236 238 238 239 241 244 246 248 250 252 254
233 233 235 237 237 238 240 241 242 242 243 244 245 246 247 247 247 248 248 248 249 250 251 252 254 251 245 241 242 243 243 244 246 248 250 251 252 252 252 251 250 250 249 248 247 246 244 240 236 234 233 231 230 231 232 232 231 230 230 229 229 231 232 232 232 234 236 237 236 235 233 232 233 234 236 237 239 240 240 241 243 245 248 250 252 254
235 235 236 238 238 238 240 241 242 243 244 244 245 246 247 248 247 247 248 248 248 249 250 251 252 251 245 241 240 242 244 245 247 249 251 252 253 253 253 253 253 251 250 249 248 247 246 244 240 237 235 233 232 231 231 233 233 232 232 232 231 232 233 234 234 235 237 238 238 237 235 234 234 234 235 237 240 242 243 243 244 245 247 250 252 254
237 237 238 239 238 237 238 239 240 241 243 244 245 246 247 247 248 248 248 248 248 249 250 251 250 248 246 244 241 240 242 245 247 249 251 253 254 255 255 255 255 253 251 249 248 248 247 246 243 240 237 235 234 233 232 232 233 233 233 233 234 234 235 236 236 237 238 239 239 239 238 237 236 236 236 237 239 242 244 246 247 247 248 250 252 253
237 237 238 240 240 238 237 237 238 239 240 242 243 244 245 246 247 248 249 250 250 250 251 251 250 247 246 245 242 239 240 242 245 249 251 252 254 256 257 257 256 255 253 251 250 249 247 247 246 244 242 239 237 236 234 233 233 233 233 233 234 235 236 236 237 238 239 240 240 241 240 239 239 239 238 238 239 241 243 246 248 249 250 252 253 254
236 237 238 240 242 241 239 238 238 238 239 241 242 243 245 246 248 249 250 250 251 250 250 250 250 249 248 246 243 240 239 240 243 247 249 251 254 257 258 258 256 255 253 252 252 251 250 249 248 247 245 243 241 239 237 235 234 233 234 234 234 235 236 236 237 239 240 241 241 242 242 242 242 242 241 241 241 242 243 244 246 248 250 252 253 255
236 238 238 240 242 243 241 239 239 239 239 240 242 244 245 246 247 248 249 250 250 249 249 249 250 250 249 246 243 240 240 240 242 245 248 252 256 257 256 256 255 253 252 252 252 253 252 250 249 248 246 245 244 242 241 239 237 235 234 235 235 235 236 236 237 238 239 241 242 242 243 244 245 245 244 243 242 242 243 244 245 246 248 249 251 253
237 238 239 240 242 243 241 237 237 237 238 239 241 243 244 246 247 247 247 248 249 249 250 250 250 249 248 245 242 240 240 241 243 245 248 252 254 254 252 252 252 252 251 250 251 252 252 251 250 248 246 246 246 245 243 242 241 238 236 236 236 236 237 238 238 238 239 240 242 243 244 245 246 246 246 246 245 244 244 244 246 247 248 249 250 251
238 238 239 240 241 241 240 237 236 236 236 237 238 240 242 244 246 247 246 246 247 249 249 248 247 245 244 243 241 239 239 240 241 243 245 248 249 249 248 250 251 251 251 250 250 250 250 250 250 249 247 246 245 245 244 243 243 241 239 238 238 237 237 238 239 239 240 240 242 243 244 246 247 247 248 248 247 247 246 246 246 247 248 249 250 251
238 238 239 239 240 240 238 236 235 235 235 236 237 239 240 242 245 247 247 246 245 246 246 243 241 240 240 240 240 238 238 238 238 238 241 245 247 248 248 249 250 252 251 251 250 250 250 249 249 248 248 247 246 245 245 244 244 243 241 240 239 239 238 238 238 240 241 242 242 243 244 246 247 248 249 249 249 249 249 249 248 248 249 249 250 251
237 237 237 237 237 236 234 232 231 231 232 233 235 237 239 241 243 246 247 246 245 244 243 241 238 237 238 239 240 239 239 239 238 238 240 244 247 249 250 250 251 252 252 252 252 251 251 250 250 249 248 249 248 248 247 246 245 244 243 242 241 240 239 239 239 239 240 241 243 244 245 246 247 248 249 250 251 251 252 252 252 252 252 252 252 253
233 233 233 233 233 231 228 227 227 228 229 230 232 235 237 239 241 244 246 246 245 243 241 240 238 236 236 237 239 240 240 239 239 239 240 243 246 249 251 252 252 252 252 252 253 253 252 252 251 250 249 249 249 249 249 248 247 246 246 245 243 242 241 240 240 240 240 241 242 243 245 246 247 248 249 250 251 252 252 253 254 254 255 255 256 256
Height
10631 10634 10637 10638 10639 10638 10640 10642 10642 10642 10648 10653 10655 10657 10657 10657 10656 10655 10662 10669 10670 10672 10676 10676 10674 10672 10669 10668 10669 10672 10675 10677 10680 10686 10689 10687 10686 10685 10684 10687 10691 10692 10692 10693 10696 10698 10697 10700 10704 10706 10707 10706 10705 10709 10713 10712 10708 10709 10714 10718 10720 10717 10714 10717 10722 10727 10733 10735 10734 10734 10732 10732 10736 10738 10740 10743 10747 10749 10751 10753 10754 10755 10756 10757 10758 10759
10626 10629 10629 10629 10630 10631 10635 10638 10638 10641 10646 10649 10651 10651 10649 10649 10648 10647 10655 10664 10665 10666 10671 10674 10672 10668 10664 10663 10663 10664 10667 10669 10674 10679 10679 10680 10681 10681 10681 10682 10684 10685 10686 10687 10689 10690 10691 10694 10699 10700 10701 10701 10701 10704 10707 10706 10705 10708 10713 10714 10715 10715 10713 10715 10719 10723 10727 10729 10730 10729 10730 10732 10734 10735 10737 10741 10745 10747 10749 10750 10751 10752 10752 10753 10755 10756
10621 10621 10620 10620 10622 10626 10632 10634 10634 10638 10641 10644 10645 10643 10643 10645 10643 10641 10646 10655 10660 10661 10665 10670 10669 10662 10659 10660 10659 10659 10659 10660 10667 10673 10674 10674 10674 10674 10676 10677 10679 10678 10678 10680 10681 10683 10684 10688 10692 10694 10694 10696 10698 10700 10701 10702 10704 10706 10707 10707 10709 10709 10710 10713 10717 10722 10725 10728 10729 10729 10730 10731 10731 10733 10736 10739 10742 10745 10746 10747 10748 10748 10749 10750 10751 10752
10613 10611 10611 10615 10619 10623 10628 10630 10630 10633 10636 10638 10638 10636 10639 10642 10638 10635 10637 10646 10655 10657 10658 10664 10664 10656 10653 10657 10656 10654 10653 10653 10657 10663 10668 10671 10669 10667 10668 10672 10673 10671 10671 10673 10673 10675 10678 10681 10685 10686 10687 10690 10694 10696 10696 10698 10701 10702 10702 10702 10703 10704 10706 10709 10714 10720 10723 10725 10725 10725 10726 10727 10727 10731 10735 10737 10739 10741 10743 10743 10744 10744 10745 10746 10748 10748
10605 10604 10608 10613 10617 10621 10624 10625 10625 10628 10631 10632 10630 10631 10634 10635 10633 10630 10632 10640 10648 10651 10652 10656 10658 10654 10650 10651 10651 10649 10650 10648 10647 10649 10656 10664 10666 10663 10662 10665 10665 10664 10665 10666 10666 10668 10671 10675 10678 10678 10680 10684 10689 10691 10691 10693 10696 10698 10700 10700 10700 10701 10703 10705 10709 10714 10716 10716 10717 10719 10720 10721 10723 10727 10731 10733 10735 10737 10738 10739 10739 10740 10741 10742 10743 10743
10598 10600 10606 10610 10613 10616 10619 10620 10620 10621 10625 10626 10625 10625 10628 10628 10628 10628 10629 10634 10641 10644 10646 10648 10651 10650 10647 10646 10646 10645 10646 10646 10643 10639 10640 10649 10659 10660 10658 10659 10660 10658 10656 10657 10660 10662 10665 10668 10669 10669 10673 10678 10683 10686 10687 10689 10693 10696 10698 10698 10698 10700 10701 10702 10705 10707 10709 10709 10710 10713 10715 10717 10718 10721 10725 10727 10730 10732 10733 10734 10734 10735 10737 10738 10739 10739
10592 10597 10603 10605 10608 10611 10613 10614 10614 10615 10619 10621 10619 10619 10621 10622 10623 10624 10625 10630 10635 10636 10638 10641 10643 10644 10642 10640 10640 10639 10641 10642 10640 10636 10630 10632 10644 10652 10654 10656 10656 10653 10649 10647 10652 10657 10660 10661 10661 10662 10666 10672 10677 10681 10683 10685 10690 10695 10696 10696 10696 10697 10698 10699 10701 10702 10704 10705 10706 10708 10712 10713 10714 10716 10719 10721 10724 10726 10727 10728 10730 10731 10732 10733 10734 10735
10587 10592 10597 10600 10603 10605 10607 10607 10608 10609 10613 10615 10612 10612 10615 10617 10619 10621 10622 10624 10627 10629 10631 10632 10633 10636 10636 10634 10634 10635 10635 10635 10634 10633 10626 10622 10631 10641 10647 10652 10651 10647 10643 10639 10643 10650 10652 10652 10654 10656 10660 10666 10671 10675 10678 10681 10688 10694 10695 10694 10693 10694 10695 10695 10696 10698 10699 10700 10702 10704 10708 10710 10711 10712 10714 10715 10717 10719 10721 10723 10725 10726 10727 10728 10730 10730
10582 10587 10591 10594 10598 10599 10599 10601 10603 10606 10608 10607 10605 10607 10610 10613 10614 10616 10617 10618 10621 10625 10626 10622 10621 10627 10631 10630 10629 10630 10630 10628 10626 10626 10622 10618 10625 10631 10637 10643 10643 10639 10636 10633 10636 10641 10644 10647 10649 10652 10656 10661 10665 10669 10673 10678 10684 10690 10691 10690 10689 10690 10691 10691 10693 10694 10695 10696 10697 10699 10704 10706 10706 10706 10709 10710 10711 10712 10715 10717 10720 10722 10723 10725 10726 10727
10577 10582 10586 10589 10592 10594 10594 10596 10600 10602 10601 10599 10600 10604 10608 10609 10609 10609 10612 10614 10617 10622 10620 10612 10611 10618 10624 10624 10624 10624 10622 10617 10616 10618 10616 10616 10621 10623 10625 10632 10633 10629 10627 10627 10630 10634 10638 10643 10647 10649 10653 10656 10659 10663 10668 10673 10680 10686 10687 10685 10684 10686 10687 10687 10689 10691 10693 10693 10693 10695 10698 10700 10700 10701 10703 10705 10707 10708 10709 10712 10714 10716 10718 10720 10721 10722
10573 10577 10580 10584 10588 10589 10589 10592 10595 10595 10595 10594 10597 10602 10604 10605 10604 10604 10608 10611 10614 10616 10611 10605 10606 10612 10617 10617 10617 10618 10615 10608 10608 10610 10607 10609 10615 10616 10617 10623 10624 10621 10621 10622 10626 10630 10636 10641 10644 10646 10650 10653 10655 10659 10662 10667 10675 10681 10681 10679 10679 10681 10683 10685 10687 10690 10691 10692 10691 10691 10692 10694 10695 10696 10698 10701 10703 10705 10706 10707 10709 10711 10713 10715 10716 10717
10569 10572 10575 10580 10584 10584 10583 10586 10588 10588 10591 10592 10593 10598 10599 10600 10600 10601 10604 10608 10611 10610 10603 10600 10604 10607 10611 10611 10609 10610 10608 10602 10602 10604 10600 10601 10607 10610 10611 10615 10615 10615 10616 10619 10623 10627 10634 10639 10641 10644 10648 10650 10652 10655 10658 10662 10670 10675 10674 10672 10673 10676 10680 10683 10686 10689 10690 10690 10690 10689 10688 10688 10689 10690 10693 10696 10700 10701 10702 10703 10705 10707 10708 10710 10712 10713
10564 10567 10569 10573 10579 10579 10577 10580 10582 10584 10588 10588 10589 10592 10594 10596 10598 10598 10599 10602 10604 10603 10598 10597 10600 10602 10605 10605 10602 10601 10601 10597 10596 10598 10595 10594 10600 10604 10605 10607 10608 10609 10612 10618 10623 10628 10635 10638 10640 10644 10646 10648 10650 10653 10655 10658 10664 10669 10668 10667 10669 10674 10678 10682 10686 10688 10688 10688 10688 10686 10684 10682 10682 10684 10686 10690 10693 10696 10697 10699 10700 10702 10703 10705 10707 10708
10558 10562 10565 10568 10574 10574 10571 10574 10578 10580 10583 10584 10584 10586 10589 10592 10594 10594 10594 10595 10597 10597 10595 10594 10595 10597 10599 10598 10597 10596 10594 10592 10591 10592 10590 10589 10594 10598 10599 10600 10601 10604 10609 10615 10621 10626 10631 10634 10636 10639 10643 10647 10650 10652 10653 10655 10660 10665 10665 10665 10668 10673 10677 10682 10686 10686 10684 10684 10684 10682 10679 10676 10674 10675 10679 10682 10685 10688 10690 10693 10695 10697 10698 10699 10701 10702
10554 10558 10562 10564 10567 10567 10565 10570 10574 10575 10578 10580 10580 10582 10584 10586 10588 10589 10590 10591 10592 10592 10591 10589 10589 10591 10592 10592 10591 10590 10589 10588 10587 10587 10586 10586 10591 10595 10595 10595 10597 10599 10603 10609 10613 10615 10616 10618 10623 10629 10634 10640 10645 10647 10649 10650 10655 10660 10663 10666 10669 10672 10675 10680 10683 10681 10678 10678 10675 10672 10672 10670 10667 10667 10671 10675 10678 10680 10682 10685 10688 10690 10692 10693 10694 10696
10549 10553 10556 10558 10561 10561 10561 10565 10569 10571 10573 10575 10576 10577 10579 10581 10581 10582 10585 10587 10588 10587 10586 10584 10585 10586 10586 10587 10587 10584 10583 10583 10582 10583 10583 10584 10588 10591 10591 10591 10593 10595 10598 10603 10607 10607 10605 10606 10612 10620 10626 10632 10637 10640 10642 10644 10649 10655 10661 10665 10667 10669 10673 10675 10675 10672 10667 10665 10663 10661 10664 10665 10662 10662 10666 10669 10671 10673 10675 10677 10680 10683 10685 10686 10687 10689
10544 10547 10550 10552 10556 10558 10558 10559 10563 10567 10568 10571 10573 10574 10573 10574 10576 10577 10579 10581 10582 10583 10581 10578 10580 10582 10581 10582 10582 10579 10578 10577 10576 10578 10579 10580 10583 10586 10587 10587 10590 10593 10596 10599 10602 10603 10603 10605 10609 10615 10620 10625 10630 10633 10636 10640 10644 10649 10655 10661 10665 10667 10667 10664 10662 10662 10660 10658 10656 10656 10658 10659 10657 10658 10662 10665 10666 10667 10668 10670 10673 10676 10678 10680 10681 10682
10539 10542 10545 10547 10551 10554 10554 10554 10559 10562 10563 10566 10570 10569 10567 10567 10570 10571 10573 10575 10576 10577 10575 10573 10575 10577 10577 10577 10575 10574 10573 10572 10572 10574 10575 10577 10579 10581 10583 10584 10587 10591 10593 10595 10596 10598 10601 10605 10609 10613 10615 10617 10621 10626 10632 10638 10642 10646 10650 10656 10660 10661 10658 10653 10653 10656 10657 10656 10654 10654 10654 10654 10656 10659 10662 10662 10660 10660 10662 10664 10667 10669 10671 10672 10673 10675
10534 10538 10541 10543 10545 10549 10550 10550 10554 10557 10557 10560 10562 10563 10563 10562 10564 10565 10566 10568 10569 10570 10570 10568 10569 10572 10573 10572 10569 10568 10568 10567 10568 10570 10571 10573 10576 10578 10580 10581 10583 10587 10589 10591 10592 10594 10598 10603 10607 10611 10613 10614 10616 10620 10627 10632 10636 10641 10645 10649 10651 10651 10649 10647 10647 10649 10649 10648 10648 10649 10649 10651 10656 10660 10662 10660 10655 10652 10654 10657 10660 10662 10663 10665 10667 10668
10530 10534 10536 10538 10538 10542 10545 10547 10549 10551 10551 10553 10555 10557 10558 10558 10558 10559 10560 10562 10563 10564 10564 10563 10564 10567 10568 10566 10564 10563 10563 10563 10565 10567 10568 10569 10572 10574 10576 10578 10580 10583 10585 10587 10588 10590 10594 10598 10602 10606 10610 10613 10614 10616 10620 10622 10622 10628 10636 10642 10644 10643 10642 10642 10641 10639 10638 10639 10640 10642 10643 10647 10653 10656 10657 10655 10649 10645 10647 10650 10652 10654 10656 10659 10661 10663
10526 10529 10530 10531 10532 10536 10542 10543 10543 10545 10545 10547 10549 10550 10551 10551 10553 10553 10554 10556 10557 10557 10558 10558 10560 10561 10561 10560 10560 10558 10558 10559 10561 10563 10564 10565 10567 10570 10573 10575 10577 10579 10581 10583 10584 10586 10590 10593 10597 10601 10605 10609 10611 10612 10616 10616 10612 10614 10624 10631 10635 10636 10635 10636 10635 10633 10633 10634 10635 10636 10639 10643 10647 10650 10650 10648 10644 10642 10643 10645 10646 10649 10651 10654 10656 10657
10522 10525 10525 10525 10528 10532 10537 10537 10537 10539 10540 10541 10543 10544 10544 10545 10546 10547 10549 10551 10551 10551 10553 10554 10556 10556 10555 10555 10555 10554 10554 10555 10556 10558 10559 10561 10563 10566 10569 10572 10575 10576 10577 10579 10581 10584 10586 10589 10592 10596 10599 10604 10608 10610 10613 10612 10608 10610 10616 10621 10625 10628 10628 10629 10629 10629 10630 10631 10631 10632 10634 10636 10640 10643 10644 10642 10642 10641 10641 10642 10644 10646 10648 10650 10651 10653
10517 10522 10520 10520 10523 10527 10530 10531 10532 10533 10534 10536 10537 10538 10538 10538 10539 10542 10544 10545 10546 10546 10548 10550 10551 10550 10550 10551 10551 10550 10550 10551 10552 10553 10555 10557 10559 10562 10566 10569 10572 10574 10575 10576 10579 10581 10584 10586 10588 10591 10594 10598 10601 10604 10607 10606 10604 10606 10609 10612 10616 10620 10622 10623 10625 10625 10626 10627 10628 10628 10629 10631 10634 10636 10637 10638 10638 10638 10638 10639 10641 10642 10644 10646 10647 10648
10511 10515 10514 10515 10518 10521 10524 10525 10526 10527 10528 10530 10531 10531 10531 10532 10533 10536 10539 10541 10542 10542 10543 10544 10546 10546 10545 10546 10546 10545 10546 10547 10549 10550 10551 10552 10555 10558 10563 10566 10569 10571 10572 10573 10576 10579 10582 10584 10586 10589 10591 10593 10596 10598 10601 10601 10600 10601 10603 10606 10610 10614 10616 10618 10620 10621 10621 10622 10624 10625 10625 10627 10629 10631 10632 10633 10633 10634 10635 10636 10637 10638 10640 10641 10642 10643
10504 10506 10508 10510 10511 10515 10518 10517 10520 10522 10523 10524 10524 10524 10526 10527 10529 10532 10535 10537 10538 10538 10538 10538 10540 10541 10540 10540 10540 10540 10541 10543 10544 10545 10546 10548 10551 10554 10559 10563 10565 10567 10569 10570 10572 10575 10579 10582 10585 10587 10589 10591 10593 10594 10596 10597 10598 10600 10602 10604 10606 10609 10612 10614 10615 10616 10617 10618 10620 10621 10621 10623 10625 10627 10628 10628 10629 10630 10632 10633 10632 10634 10636 10637 10637 10638
10496 10498 10503 10504 10504 10508 10511 10510 10515 10518 10518 10517 10517 10519 10522 10523 10525 10527 10529 10531 10532 10533 10534 10533 10534 10535 10534 10533 10533 10534 10536 10538 10539 10541 10542 10544 10547 10550 10554 10558 10561 10562 10565 10566 10568 10571 10574 10578 10581 10584 10587 10589 10590 10592 10593 10594 10595 10597 10600 10601 10602 10605 10609 10610 10609 10610 10612 10614 10616 10617 10618 10619 10621 10623 10624 10624 10626 10627 10628 10629 10629 10630 10632 10632 10633 10634
10489 10492 10496 10497 10498 10502 10504 10505 10510 10511 10509 10510 10512 10515 10517 10518 10519 10521 10523 10525 10527 10528 10528 10528 10529 10529 10528 10528 10528 10529 10531 10533 10535 10538 10540 10542 10544 10547 10550 10554 10556 10558 10561 10563 10565 10568 10570 10573 10576 10579 10582 10584 10586 10587 10589 10589 10591 10593 10595 10597 10599 10602 10604 10602 10601 10604 10608 10610 10612 10614 10615 10616 10618 10619 10620 10621 10622 10623 10625 10625 10625 10626 10627 10627 10628 10629
10482 10485 10489 10490 10492 10495 10497 10499 10502 10502 10501 10504 10507 10509 10510 10511 10513 10515 10518 10520 10521 10522 10523 10524 10523 10523 10523 10523 10523 10524 10526 10528 10530 10533 10536 10539 10541 10544 10546 10549 10552 10554 10557 10559 10562 10565 10567 10570 10572 10575 10576 10578 10580 10582 10584 10585 10587 10589 10591 10593 10596 10599 10599 10597 10597 10601 10605 10608 10611 10613 10614 10614 10615 10616 10616 10617 10618 10619 10620 10621 10621 10621 10622 10623 10624 10624
10474 10479 10483 10484 10485 10488 10489 10491 10494 10494 10495 10500 10502 10502 10503 10505 10507 10511 10513 10514 10515 10516 10519 10520 10518 10518 10518 10518 10519 10521 10523 10524 10526 10528 10531 10535 10538 10541 10543 10545 10547 10550 10552 10555 10558 10561 10564 10566 10568 10570 10572 10573 10575 10577 10579 10581 10583 10586 10588 10590 10592 10594 10595 10595 10597 10600 10604 10608 10610 10612 10613 10613 10613 10614 10613 10613 10613 10614 10616 10616 10616 10617 10617 10618 10619 10619
10468 10472 10475 10476 10477 10480 10482 10483 10486 10489 10491 10494 10496 10495 10496 10500 10503 10506 10508 10508 10509 10510 10513 10515 10514 10513 10513 10514 10515 10517 10519 10520 10522 10524 10527 10530 10534 10537 10539 10541 10543 10545 10548 10551 10555 10558 10560 10561 10563 10565 10567 10568 10570 10572 10574 10577 10579 10581 10583 10586 10588 10590 10592 10593 10595 10600 10605 10609 10610 10611 10612 10610 10610 10611 10611 10609 10609 10609 10611 10611 10612 10612 10612 10613 10614 10613
10461 10464 10465 10467 10469 10472 10474 10476 10479 10483 10485 10488 10489 10488 10491 10495 10498 10500 10502 10502 10503 10505 10508 10510 10509 10508 10509 10510 10512 10513 10514 10515 10518 10520 10523 10526 10529 10532 10535 10536 10539 10541 10543 10546 10550 10553 10554 10555 10557 10560 10562 10563 10565 10567 10570 10572 10575 10576 10579 10581 10584 10586 10588 10591 10595 10600 10605 10608 10608 10609 10608 10605 10605 10606 10606 10605 10604 10604 10605 10606 10606 10607 10606 10607 10609 10608
10452 10455 10456 10458 10461 10464 10467 10469 10472 10476 10479 10481 10482 10483 10485 10489 10491 10494 10496 10496 10497 10500 10504 10505 10504 10504 10505 10506 10507 10508 10509 10511 10513 10516 10519 10521 10524 10527 10530 10532 10534 10536 10538 10541 10544 10547 10549 10551 10552 10555 10557 10559 10560 10563 10566 10568 10570 10572 10574 10577 10579 10582 10584 10588 10592 10595 10599 10600 10600 10600 10598 10596 10598 10601 10601 10599 10598 10598 10599 10600 10600 10600 10600 10602 10603 10602
10443 10446 10448 10450 10452 10455 10459 10461 10464 10469 10472 10474 10477 10478 10480 10483 10485 10487 10490 10491 10492 10495 10498 10499 10499 10500 10501 10502 10503 10504 10505 10507 10509 10512 10515 10517 10520 10522 10524 10527 10529 10530 10533 10535 10538 10541 10543 10546 10548 10550 10551 10554 10556 10559 10561 10563 10565 10567 10569 10572 10575 10577 10580 10583 10587 10588 10591 10593 10592 10591 10591 10592 10594 10597 10596 10593 10593 10593 10593 10593 10594 10593 10594 10595 10597 10597
10435 10437 10439 10442 10444 10447 10451 10454 10456 10461 10466 10470 10471 10472 10474 10477 10478 10481 10483 10486 10488 10490 10491 10493 10495 10496 10496 10497 10498 10500 10502 10504 10506 10508 10511 10513 10515 10517 10519 10522 10524 10526 10528 10530 10532 10535 10537 10540 10542 10544 10546 10549 10551 10554 10556 10558 10560 10563 10565 10568 10570 10573 10575 10578 10581 10583 10585 10587 10587 10587 10589 10590 10590 10591 10590 10588 10588 10589 10587 10586 10587 10586 10586 10588 10590 10591
10428 10430 10432 10435 10436 10439 10444 10446 10449 10455 10461 10464 10465 10466 10469 10470 10472 10476 10479 10481 10483 10484 10485 10487 10490 10491 10491 10493 10494 10496 10498 10500 10502 10504 10505 10508 10510 10512 10514 10517 10519 10521 10523 10525 10526 10529 10531 10534 10536 10538 10540 10543 10545 10548 10550 10552 10555 10558 10561 10563 10566 10568 10571 10573 10576 10577 10579 10580 10581 10583 10585 10586 10585 10585 10584 10583 10584 10584 10581 10580 10580 10580 10579 10581 10582 10583
10421 10423 10426 10428 10429 10433 10436 10438 10443 10449 10455 10458 10459 10461 10464 10465 10467 10470 10473 10476 10478 10479 10480 10482 10484 10486 10487 10488 10489 10491 10494 10496 10498 10499 10500 10503 10505 10507 10510 10512 10514 10517 10519 10520 10522 10523 10526 10528 10530 10532 10533 10536 10538 10541 10543 10545 10549 10552 10555 10558 10560 10563 10565 10568 10570 10572 10573 10575 10576 10578 10580 10581 10580 10579 10579 10579 10579 10578 10577 10575 10574 10574 10573 10574 10574 10575
10414 10416 10419 10421 10423 10427 10430 10433 10438 10443 10448 10451 10453 10455 10458 10460 10461 10464 10466 10470 10473 10475 10476 10478 10480 10481 10482 10483 10485 10487 10489 10491 10493 10494 10495 10498 10500 10502 10505 10507 10509 10512 10513 10515 10517 10519 10521 10523 10525 10526 10527 10529 10531 10534 10536 10538 10541 10545 10549 10552 10554 10557 10560 10562 10564 10566 10568 10569 10571 10572 10574 10575 10574 10573 10573 10572 10572 10572 10571 10570 10569 10569 10568 10567 10567 10569
10408 10411 10414 10416 10418 10421 10425 10428 10432 10437 10442 10446 10447 10448 10451 10454 10456 10459 10461 10464 10467 10469 10471 10473 10476 10477 10477 10479 10481 10482 10484 10486 10488 10489 10490 10493 10495 10497 10500 10502 10504 10506 10508 10510 10512 10514 10516 10517 10519 10520 10521 10522 10524 10527 10529 10532 10534 10537 10541 10545 10547 10550 10554 10556 10558 10560 10562 10564 10565 10566 10568 10568 10568 10566 10566 10566 10566 10566 10566 10565 10563 10563 10563 10562 10563 10565
10403 10406 10408 10408 10411 10414 10418 10422 10426 10431 10435 10437 10439 10442 10446 10448 10451 10454 10456 10459 10462 10464 10465 10467 10470 10472 10473 10474 10475 10477 10479 10481 10482 10483 10485 10488 10490 10492 10495 10497 10499 10500 10502 10504 10506 10508 10509 10511 10512 10514 10515 10515 10517 10520 10523 10525 10527 10530 10534 10537 10540 10542 10546 10549 10551 10553 10555 10557 10559 10560 10561 10561 10561 10560 10560 10560 10560 10561 10561 10560 10558 10558 10559 10559 10559 10560
10396 10399 10399 10399 10403 10407 10410 10414 10420 10424 10427 10429 10432 10436 10439 10441 10445 10448 10452 10455 10456 10457 10458 10460 10462 10465 10467 10469 10470 10472 10474 10476 10477 10478 10480 10483 10486 10487 10489 10492 10493 10495 10496 10498 10500 10501 10502 10504 10506 10508 10509 10509 10510 10513 10515 10518 10521 10523 10526 10530 10532 10535 10538 10541 10544 10545 10547 10550 10552 10553 10554 10555 10554 10554 10554 10554 10554 10554 10555 10554 10554 10554 10555 10554 10554 10554
10387 10389 10390 10391 10397 10402 10404 10408 10413 10416 10419 10422 10425 10428 10431 10434 10438 10442 10445 10448 10449 10450 10452 10454 10456 10458 10461 10463 10465 10467 10469 10471 10473 10473 10475 10478 10480 10482 10484 10486 10488 10489 10490 10491 10493 10494 10495 10497 10500 10502 10502 10503 10504 10506 10508 10511 10513 10516 10519 10522 10525 10527 10530 10533 10536 10538 10539 10541 10543 10546 10547 10548 10548 10548 10548 10547 10547 10547 10548 10549 10549 10549 10549 10549 10548 10549
10378 10381 10383 10385 10391 10396 10399 10402 10407 10410 10413 10416 10419 10421 10424 10427 10431 10433 10436 10440 10442 10444 10445 10448 10450 10452 10455 10457 10459 10461 10463 10466 10467 10468 10469 10472 10474 10476 10478 10480 10481 10483 10483 10485 10486 10487 10489 10491 10493 10495 10496 10497 10499 10501 10502 10504 10505 10508 10510 10513 10517 10519 10522 10525 10528 10530 10531 10533 10535 10537 10539 10540 10541 10541 10541 10541 10540 10540 10541 10542 10543 10543 10543 10543 10543 10543
10371 10373 10375 10378 10383 10389 10392 10396 10401 10404 10408 10411 10413 10415 10417 10420 10422 10425 10428 10431 10435 10437 10439 10441 10444 10446 10449 10451 10453 10455 10458 10460 10462 10463 10464 10466 10468 10470 10471 10474 10475 10476 10476 10478 10479 10481 10483 10485 10486 10487 10489 10491 10493 10495 10497 10498 10499 10501 10503 10506 10509 10511 10513 10516 10519 10522 10523 10524 10526 10529 10531 10532 10533 10534 10534 10534 10533 10533 10534 10534 10535 10536 10537 10537 10537 10537
10363 10366 10369 10372 10375 10380 10385 10389 10393 10398 10401 10405 10407 10409 10410 10412 10414 10416 10419 10423 10427 10430 10432 10435 10437 10439 10442 10444 10447 10449 10452 10454 10456 10458 10458 10460 10462 10463 10465 10467 10468 10469 10470 10471 10471 10473 10476 10478 10480 10481 10483 10485 10486 10488 10489 10491 10493 10494 10496 10498 10501 10503 10505 10508 10511 10513 10514 10516 10518 10520 10522 10523 10525 10526 10526 10527 10526 10526 10527 10527 10528 10529 10529 10530 10530 10530
10357 10360 10363 10366 10367 10372 10378 10383 10388 10392 10396 10399 10400 10401 10403 10405 10407 10409 10412 10416 10420 10423 10426 10428 10430 10432 10435 10438 10440 10443 10446 10448 10451 10452 10453 10454 10456 10458 10459 10460 10461 10461 10463 10463 10463 10465 10469 10472 10474 10475 10476 10478 10479 10480 10481 10483 10485 10487 10489 10491 10493 10495 10497 10500 10503 10504 10505 10507 10509 10511 10513 10514 10516 10517 10518 10519 10519 10519 10519 10520 10520 10521 10522 10522 10523 10523
10352 10354 10358 10361 10362 10366 10372 10378 10382 10386 10390 10392 10393 10394 10397 10398 10400 10403 10407 10410 10413 10415 10418 10421 10424 10426 10428 10431 10434 10437 10439 10443 10445 10447 10447 10448 10450 10452 10453 10453 10453 10454 10455 10456 10457 10458 10461 10464 10465 10467 10469 10470 10472 10473 10475 10476 10478 10480 10482 10484 10485 10487 10489 10492 10495 10496 10497 10499 10500 10502 10504 10505 10506 10508 10509 10510 10511 10511 10511 10512 10512 10513 10514 10515 10515 10515
10347 10350 10353 10356 10358 10362 10367 10372 10376 10378 10382 10385 10387 10388 10390 10391 10393 10397 10400 10403 10406 10409 10412 10416 10419 10420 10423 10425 10428 10431 10434 10436 10439 10441 10442 10443 10444 10445 10446 10446 10447 10447 10448 10449 10450 10451 10453 10455 10457 10459 10462 10463 10464 10466 10468 10470 10471 10473 10475 10476 10478 10479 10481 10483 10486 10488 10489 10490 10491 10493 10494 10496 10497 10498 10500 10501 10502 10503 10503 10503 10504 10505 10506 10506 10507 10508
10342 10345 10347 10350 10353 10357 10362 10367 10370 10372 10375 10379 10380 10381 10383 10385 10387 10390 10394 10397 10401 10404 10407 10410 10413 10415 10417 10419 10422 10425 10427 10430 10432 10434 10435 10436 10437 10438 10440 10440 10441 10441 10442 10443 10444 10445 10446 10448 10450 10452 10454 10455 10456 10458 10460 10461 10463 10465 10467 10469 10470 10472 10473 10475 10477 10479 10481 10482 10483 10484 10485 10487 10488 10489 10491 10492 10493 10494 10494 10495 10495 10496 10496 10497 10498 10499
10337 10339 10342 10345 10348 10352 10356 10361 10364 10366 10369 10372 10374 10375 10377 10379 10381 10384 10388 10392 10395 10398 10401 10404 10406 10408 10410 10413 10416 10418 10421 10423 10426 10427 10429 10430 10431 10432 10434 10435 10435 10436 10436 10437 10437 10438 10439 10441 10443 10444 10446 10447 10448 10450 10452 10454 10455 10457 10459 10461 10462 10464 10466 10467 10469 10470 10471 10473 10474 10475 10477 10478 10478 10479 10481 10482 10483 10484 10485 10486 10486 10486 10487 10488 10489 10490
10331 10334 10337 10339 10343 10347 10351 10354 10356 10359 10362 10364 10367 10369 10371 10374 10377 10379 10382 10386 10389 10392 10395 10398 10400 10402 10405 10407 10410 10412 10415 10417 10419 10421 10423 10424 10425 10426 10427 10428 10429 10430 10430 10430 10431 10432 10432 10434 10435 10436 10438 10439 10440 10442 10444 10446 10447 10449 10450 10451 10453 10455 10456 10458 10460 10461 10462 10464 10465 10466 10467 10468 10469 10470 10471 10472 10473 10474 10475 10476 10477 10477 10478 10478 10479 10480
10326 10329 10332 10334 10338 10341 10345 10347 10349 10352 10354 10357 10360 10363 10366 10369 10372 10374 10377 10380 10384 10387 10390 10392 10394 10397 10399 10402 10404 10406 10408 10410 10412 10414 10416 10417 10418 10419 10420 10421 10422 10422 10423 10423 10424 10424 10425 10426 10427 10428 10430 10431 10432 10434 10436 10437 10438 10440 10441 10442 10444 10446 10448 10449 10451 10452 10454 10455 10456 10457 10457 10458 10459 10460 10462 10463 10464 10464 10465 10466 10466 10467 10468 10469 10469 10470